Regional Weather Roundup
Issued by NWS

Home | Current Version | Previous Version | Graphics & Text | Print | Product List | Glossary On
Versions: 1 2 3 4 5 6 7 8 9 10 11 12 13 14 15 16 17 18 19 20 21 22 23 24 25 26 27 28 29 30 31 32 33 34 35 36 37 38 39 40 41 42 43 44 45 46 47 48 49 50
000
ASUS43 KLMK 211702
RWRKY
KENTUCKY REGIONAL WEATHER ROUNDUP
NATIONAL WEATHER SERVICE LOUISVILLE KY
100 PM EDT SAT OCT 21 2017

NOTE "FAIR" INDICATES FEW OR NO CLOUDS BELOW 12,000 FEET
WITH NO SIGNIFICANT WEATHER AND/OR OBSTRUCTIONS TO VISIBILITY.

KYZ001>023-026-027-061>063-070>075-211800-
WESTERN AND SOUTH CENTRAL KENTUCKY

CITY           SKY/WX    TMP DP  RH WIND       PRES   REMARKS
PADUCAH        MOSUNNY   76  51  41 S9        30.13F
HENDERSON      MOSUNNY   75  51  43 S10       30.18F
OWENSBORO      CLOUDY    70  51  51 S12       30.20F
HOPKINSVILLE   MOSUNNY   73  51  45 S9        30.19F
BOWLING GREEN  CLOUDY    75  49  39 SW9G21    30.23F
GLASGOW        MOSUNNY   75  48  37 S5        30.24F
$$

KYZ024-025-028>034-038-045-046-053-211800-
NORTH CENTRAL KENTUCKY

CITY           SKY/WX    TMP DP  RH WIND       PRES   REMARKS
LOUISVILLE/SDF PTSUNNY   72  52  49 S8        30.23F
LOUISVILLE/LOU MOSUNNY   70  53  54 S10       30.24F
FORT KNOX      MOSUNNY   71  50  47 S12       30.22F
$$

KYZ035>037-039>044-047>052-055>060-089>105-211800-
NORTHEAST KENTUCKY

CITY           SKY/WX    TMP DP  RH WIND       PRES   REMARKS
LEXINGTON      MOSUNNY   74  51  44 S13       30.27F
COVINGTON      CLOUDY    69  51  52 S10       30.25S
FRANKFORT      CLOUDY    73  46  38 SW12      30.25F
$$

KYZ054-064>069-076>088-106>120-211800-
SOUTHEAST KENTUCKY

CITY           SKY/WX    TMP DP  RH WIND       PRES   REMARKS
JACKSON        MOSUNNY   72  52  49 VRB5      30.31F
LONDON         CLOUDY    70  49  47 W5        30.30F
SOMERSET       MOSUNNY   70  50  49 S5        30.30F
MIDDLESBORO    MOSUNNY   69  53  55 CALM      30.32F
MONTICELLO     MOSUNNY   74  49  41 VRB7G20   30.29F
$$




USA.gov is the U.S. government's official web portal to all federal, state and local government web resources and services.